[[{"header":{"parameterUnit":"m.s-1","parameterCategory":1,"la1":30.2991,"la2":30.254,"lo1":-89.0895,"lo2":-89.0444,"dy":0.0017,"dx":0.0017,"nx":28,"ny":28,"refTime":"2024-11-28T03:00:00:Z","depth":0,"parameterNumber":2,"parameterNumberName":"U-component_of_WINDS"},"data":[0,0,0,0,0,0,0,0,0,0,0,0,0,0,0,0,0,0,0,0,0,0,0,0,0,0,0,0,0,0,0,0,0,0,0,0,0,0,0,0,0,0,0,0,0,0,0,0,0,0,0,0,0,0,0,0,0,0,2.7382,2.7383,0,2.745,2.745,2.7451,2.7414,2.7412,2.741,2.7408,2.7481,2.7484,2.7488,0,0,0,0,0,0,0,0,0,0,0,0,0,2.7225,2.7228,2.7382,2.7383,2.7384,2.745,2.745,2.7451,2.7414,2.7412,2.7409,2.7407,2.748,2.7484,2.7488,0,0,0,0,0,0,0,0,0,0,0,0,0,2.7293,2.7229,2.7382,2.7373,2.7373,2.7449,2.745,2.7452,2.7414,2.7412,2.7409,2.7406,2.7478,2.7484,2.7489,2.7579,0,0,2.7506,2.7508,0,0,0,0,0,0,0,0,2.7289,2.7299,2.7373,2.7374,2.7374,2.742,2.7422,2.7495,2.7415,2.7399,2.7408,2.7405,2.7463,2.747,2.7489,2.7583,2.7586,2.7506,2.751,2.7512,2.7514,0,0,0,0,0,0,0,2.7284,2.7296,2.7409,2.7375,2.7375,2.7367,2.7373,2.7435,2.7446,2.74,2.7397,2.7406,2.7463,2.7483,2.749,2.7587,2.7506,2.7511,2.7515,2.7517,2.7759,2.7762,0,0,0,0,0,0,2.728,2.7292,2.7407,2.7411,2.7323,2.7372,2.7379,2.7408,2.7445,2.7448,2.7408,2.7404,2.7475,2.7484,2.7493,2.7601,2.7512,2.7517,2.752,2.7756,2.776,2.7763,0,0,0,0,0,0,2.7276,2.729,2.7404,2.7351,2.7365,2.7378,2.741,2.7411,2.7432,2.7451,2.7453,2.7427,2.7474,2.7485,2.7558,2.7603,2.752,2.7525,2.7753,2.7757,2.7762,2.7817,0,0,0,0,0,0,2.7272,2.7289,2.7323,2.7352,2.7368,2.7467,2.7413,2.7414,2.7441,2.7436,2.747,2.7472,2.7472,2.755,2.7563,2.7609,2.7529,2.7749,2.7755,2.776,2.7812,2.7823,2.7834,0,0,0,0,0,2.7267,2.7336,2.7324,2.7339,2.7409,2.747,2.7479,2.7476,2.7445,2.7479,2.7492,2.7471,2.7596,2.7558,2.7573,2.762,2.7746,2.7753,2.776,2.7807,2.7821,2.7833,0,0,0,0,0,0,2.7313,2.734,2.7327,2.7408,2.7437,2.7463,2.7506,2.7491,2.753,2.7524,2.752,2.7528,2.7604,2.762,2.7577,2.771,2.7666,2.7676,2.7697,2.7711,2.7721,2.7715,2.7534,0,0,0,0,0,2.7332,2.7378,2.74,2.7469,2.7484,2.7493,2.7519,2.7514,2.7544,2.7557,2.7575,2.7606,2.7652,2.7682,2.7726,2.7814,2.7821,2.7855,2.7866,2.7875,2.7883,2.7932,2.7947,2.7787,2.7787,2.7786,0,0,2.7373,2.7393,2.7422,2.7479,2.75,2.7549,2.7503,2.7556,2.7592,2.7565,2.7634,2.765,2.7684,2.7765,2.7802,2.7781,2.7929,2.7884,2.7891,2.7894,2.794,2.7956,2.7969,2.7791,2.7791,2.779,0,0,2.7471,2.7492,2.7551,2.7574,2.7608,2.7613,2.7628,2.7657,2.7666,2.7735,2.7716,2.776,2.784,2.7865,2.7888,2.7999,2.7982,2.8014,2.807,2.8118,2.813,2.8141,2.818,2.8194,2.8022,2.8023,2.8023,0,2.7518,2.7589,2.7584,2.7639,2.7665,2.7642,2.7703,2.7726,2.7773,2.7792,2.7767,2.7866,2.7888,2.7975,2.8002,2.8022,2.8039,2.8009,2.8128,2.814,2.815,2.8187,2.8202,2.8026,2.8026,2.8025,2.8025,0,2.7644,2.7694,2.7739,2.7783,2.7814,2.7872,2.7878,2.791,2.7904,2.7913,2.7985,2.801,2.8059,2.8079,2.8074,2.8166,2.8152,2.8128,2.8084,2.8169,2.8204,2.8218,2.8031,2.803,2.8029,2.8028,0,0,2.7771,2.7814,2.783,2.785,2.7886,2.7925,2.7983,2.803,2.8058,2.8091,2.814,2.8209,2.8187,2.8214,2.8211,2.8253,2.8339,2.8224,2.8225,2.8244,2.8442,2.8459,2.8475,2.8328,2.8331,2.8333,2.8439,0,2.7871,2.797,2.7969,2.8062,2.8108,2.8089,2.8139,2.8168,2.8178,2.822,2.8232,2.8281,2.8249,2.8265,2.8305,2.832,2.8378,2.8312,2.8374,2.8376,2.8364,2.8493,2.8511,2.8609,2.8453,2.8455,2.8457,0,2.8001,2.8038,2.8135,2.8165,2.8184,2.8229,2.8272,2.8313,2.8345,2.835,2.8381,2.8372,2.8433,2.8388,2.8471,2.8426,2.8452,2.8463,2.8467,2.8472,2.842,2.8501,2.8641,2.8655,2.8478,2.8477,2.8475,0,2.8083,2.8157,2.8225,2.8243,2.828,2.8312,2.833,2.8359,2.8388,2.8427,2.8445,2.8491,2.8516,2.8552,2.8557,2.8523,2.8641,2.8596,2.8647,2.8647,2.8671,2.8669,2.8816,2.869,2.8689,2.8689,2.8689,0,2.8194,2.8253,2.8262,2.8303,2.837,2.837,2.8437,2.8451,2.8479,2.8523,2.8511,2.8553,2.8558,2.8602,2.8607,2.8675,2.8687,2.8693,2.8693,2.8693,2.8692,2.8709,2.8702,2.8693,2.8692,2.8691,2.8691,0,2.8295,2.8304,2.8376,2.8406,2.8415,2.8463,2.8489,2.8529,2.8539,2.8596,2.861,2.8626,2.8678,2.8686,2.8748,2.8751,2.8833,2.8827,2.8821,2.882,2.887,2.8865,2.9031,2.9053,2.8914,2.8915,2.8916,0,2.8365,2.841,2.8445,2.8474,2.8492,2.8539,2.8568,2.857,2.8601,2.8643,2.8679,2.8729,2.8769,2.8854,2.8871,2.8919,2.8913,2.8969,2.892,2.8919,2.8913,2.891,2.8914,2.8977,2.8979,2.898,2.8981,0,2.8487,2.8489,2.853,2.8574,2.8609,2.8644,2.8677,2.8702,2.8709,2.8745,2.8797,2.8828,2.8891,2.8942,2.8989,2.9008,2.8996,2.8996,2.901,2.901,2.9005,2.9008,2.8845,2.8992,2.8991,2.899,2.8989,2.8989,2.8573,2.8613,2.8644,2.8691,2.8717,2.8748,2.8788,2.8803,2.8846,2.8897,2.8896,2.8954,2.8988,2.905,2.9072,2.9118,2.9101,2.9121,2.9126,2.9131,2.9135,2.8999,2.9127,2.9127,2.9127,2.9126,2.9126,0,2.8694,2.8713,2.8757,2.8803,2.8841,2.8827,2.8863,2.8896,2.8946,2.8978,2.9018,2.9079,2.9129,2.9151,2.92,2.9233,2.9229,2.9246,2.9243,2.9248,2.9149,2.9131,2.9249,2.9249,2.9248,2.9248,2.9248,2.9248,2.8761,2.8827,2.8834,2.8913,2.8933,2.8988,2.901,2.904,2.9065,2.9134,2.9174,2.9189,2.9217,2.9269,2.9314,2.9319,2.9338,2.9357,2.936,2.9267,2.9255,2.9243,2.9226,2.9361,2.9362,2.9455,2.9456,2.9457]},{"header":{"parameterUnit":"m.s-1","parameterCategory":1,"la1":30.2991,"la2":30.254,"lo1":-89.0895,"lo2":-89.0444,"dy":0.0017,"dx":0.0017,"nx":28,"ny":28,"refTime":"2024-11-28T03:00:00:Z","depth":0,"parameterNumber":3,"parameterNumberName":"V-component_of_WINDS"},"data":[0,0,0,0,0,0,0,0,0,0,0,0,0,0,0,0,0,0,0,0,0,0,0,0,0,0,0,0,0,0,0,0,0,0,0,0,0,0,0,0,0,0,0,0,0,0,0,0,0,0,0,0,0,0,0,0,0,0,3.4835,3.4835,0,3.4868,3.4869,3.4869,3.4811,3.4809,3.4807,3.4805,3.4837,3.484,3.4842,0,0,0,0,0,0,0,0,0,0,0,0,0,3.4719,3.4721,3.4835,3.4835,3.4836,3.4868,3.4869,3.4869,3.4811,3.4809,3.4806,3.4804,3.4836,3.4839,3.4843,0,0,0,0,0,0,0,0,0,0,0,0,0,3.4762,3.4722,3.4835,3.4811,3.4809,3.4868,3.4869,3.4869,3.4811,3.4809,3.4806,3.4803,3.4835,3.4839,3.4843,3.4927,0,0,3.4855,3.4857,0,0,0,0,0,0,0,0,3.476,3.4767,3.4814,3.4812,3.481,3.4832,3.4839,3.4888,3.4812,3.481,3.4805,3.4801,3.4838,3.4841,3.4854,3.4928,3.4929,3.4856,3.4858,3.486,3.4861,0,0,0,0,0,0,0,3.4757,3.4765,3.4848,3.4814,3.4812,3.4798,3.48,3.4848,3.484,3.481,3.4806,3.4811,3.4836,3.485,3.4854,3.493,3.4856,3.4859,3.4862,3.4863,3.5075,3.5078,0,0,0,0,0,0,3.4757,3.4763,3.4847,3.4849,3.4778,3.4802,3.4805,3.4828,3.4839,3.4838,3.4814,3.4808,3.4845,3.485,3.4855,3.4954,3.486,3.4864,3.4866,3.5071,3.5075,3.5079,0,0,0,0,0,0,3.4755,3.4765,3.4845,3.4805,3.4814,3.4807,3.4833,3.483,3.4844,3.4842,3.484,3.483,3.4843,3.485,3.4909,3.4954,3.4865,3.4869,3.5068,3.5073,3.5077,3.5152,0,0,0,0,0,0,3.4752,3.4765,3.4797,3.4806,3.4816,3.49,3.4836,3.4833,3.4852,3.4845,3.4856,3.4855,3.4841,3.4904,3.4914,3.4958,3.4872,3.5064,3.507,3.5075,3.5146,3.5159,3.517,0,0,0,0,0,3.4748,3.4816,3.4799,3.4809,3.4856,3.4903,3.4908,3.4891,3.4856,3.4887,3.4886,3.4855,3.4948,3.491,3.4921,3.4967,3.5061,3.5068,3.5075,3.514,3.5156,3.517,0,0,0,0,0,0,3.4812,3.4817,3.4798,3.4871,3.4887,3.4893,3.4932,3.4909,3.4934,3.4927,3.4904,3.4907,3.4971,3.4975,3.4933,3.5049,3.4998,3.5008,3.5044,3.5059,3.5072,3.5069,3.4876,0,0,0,0,0,3.4834,3.4872,3.4874,3.4939,3.4948,3.4939,3.4958,3.4944,3.4959,3.4965,3.4968,3.4983,3.5016,3.5038,3.5068,3.5146,3.5147,3.5183,3.5195,3.5206,3.5214,3.5256,3.5272,3.5102,3.5102,3.5102,0,0,3.4881,3.4889,3.4914,3.4952,3.4962,3.5002,3.4945,3.4989,3.5017,3.4972,3.5029,3.5031,3.5047,3.5117,3.5147,3.5122,3.5261,3.5215,3.5223,3.5226,3.5265,3.5281,3.5295,3.5107,3.5106,3.5106,0,0,3.4987,3.4997,3.5051,3.5064,3.5081,3.5075,3.5088,3.5098,3.5098,3.5155,3.5122,3.5155,3.5212,3.5224,3.5238,3.535,3.5322,3.536,3.5424,3.5465,3.5479,3.549,3.553,3.5545,3.5369,3.5369,3.5369,0,3.5043,3.5101,3.5082,3.5129,3.5146,3.5108,3.5163,3.5175,3.5201,3.5214,3.5185,3.5256,3.5264,3.5336,3.5363,3.5376,3.539,3.5358,3.5478,3.549,3.5501,3.5538,3.5553,3.5373,3.5373,3.5372,3.5372,0,3.5169,3.521,3.5252,3.5279,3.5302,3.5352,3.5341,3.5365,3.5349,3.5346,3.5405,3.5413,3.5444,3.546,3.5444,3.553,3.5514,3.5482,3.5431,3.5522,3.5557,3.5571,3.538,3.5378,3.5377,3.5376,0,0,3.5314,3.5332,3.5347,3.5359,3.5376,3.5407,3.5456,3.5487,3.5509,3.5528,3.5568,3.5618,3.5589,3.5605,3.559,3.5626,3.5714,3.559,3.559,3.5613,3.5809,3.5833,3.585,3.5696,3.5699,3.5701,3.5808,0,3.5419,3.5504,3.549,3.5572,3.561,3.5574,3.5617,3.5631,3.563,3.5661,3.5659,3.5694,3.5654,3.5663,3.5697,3.5696,3.5753,3.5688,3.5733,3.5735,3.573,3.5868,3.5893,3.5994,3.5821,3.5824,3.5825,0,3.5553,3.5578,3.5665,3.5676,3.5692,3.573,3.5758,3.5788,3.5804,3.5801,3.5819,3.5798,3.5846,3.5794,3.586,3.5817,3.5834,3.5836,3.584,3.5843,3.5785,3.5875,3.6025,3.604,3.5847,3.5845,3.5844,0,3.565,3.5706,3.5765,3.5777,3.5791,3.5819,3.5827,3.584,3.586,3.5884,3.5896,3.5926,3.5942,3.5964,3.5952,3.5915,3.602,3.5967,3.6018,3.6018,3.6041,3.604,3.6196,3.6053,3.6053,3.6052,3.6052,0,3.5769,3.5823,3.5809,3.5846,3.5906,3.5888,3.5947,3.595,3.5962,3.5998,3.5969,3.6003,3.5984,3.6017,3.6007,3.6064,3.6071,3.6069,3.6066,3.6072,3.6072,3.6082,3.6075,3.6056,3.6056,3.6055,3.6054,0,3.5887,3.588,3.5943,3.5952,3.5956,3.5999,3.6007,3.6041,3.6037,3.6083,3.6093,3.6088,3.6125,3.6115,3.6154,3.6148,3.6219,3.6207,3.6214,3.6211,3.6262,3.6258,3.6431,3.6453,3.6296,3.6297,3.6298,0,3.5963,3.6004,3.6019,3.6041,3.6051,3.6087,3.6108,3.6092,3.6115,3.6137,3.6168,3.6203,3.6229,3.629,3.629,3.632,3.6308,3.6367,3.6313,3.6317,3.6309,3.6307,3.6311,3.6378,3.6379,3.6381,3.6382,0,3.6098,3.6093,3.6125,3.6155,3.6181,3.6204,3.6224,3.6244,3.623,3.6257,3.6295,3.6316,3.6357,3.6392,3.642,3.6427,3.6403,3.6399,3.6413,3.6419,3.6422,3.6421,3.6243,3.6395,3.6394,3.6393,3.6392,3.6392,3.6198,3.6233,3.6249,3.6285,3.6299,3.6319,3.6351,3.6353,3.6384,3.6418,3.6406,3.645,3.6465,3.65,3.6511,3.6545,3.6522,3.6541,3.6546,3.6551,3.6558,3.6417,3.655,3.6549,3.6549,3.6548,3.6548,0,3.6331,3.634,3.6374,3.6404,3.6432,3.6408,3.6429,3.6454,3.6494,3.651,3.6538,3.6582,3.6616,3.6618,3.665,3.6677,3.6666,3.6685,3.6683,3.6685,3.6576,3.6561,3.6693,3.6693,3.6693,3.6693,3.6693,3.6693,3.6404,3.6463,3.646,3.6525,3.6533,3.6577,3.6591,3.6609,3.6622,3.6673,3.6702,3.6704,3.6715,3.6747,3.6777,3.6777,3.679,3.6814,3.6809,3.6707,3.6693,3.6679,3.6665,3.6817,3.6817,3.6915,3.6916,3.6917]}]]